Location: Hebron
(33.0265°N, 96.8636°W)
Time: 17:28:57
(UTC+00:00)

OAO 2 Rocket - Pass Details

Date: 12 July 2022
Orbit: 676 x 744 km, 35.0° (Epoch: 16 August)

Event Time Altitude Azimuth Distance (km) Brightness Sun altitude
Exits shadow 10:30:29 - 200° (SSW) 2,233 5.4 -11.1°
Reaches altitude 10° 10:30:40 10° 199° (SSW) 2,178 5.4 -11.1°
Maximum altitude 10:34:35 22° 148° (SSE) 1,499 5.0 -10.4°
Drops below altitude 10° 10:38:27 10° 98° (E) 2,148 6.6 -9.8°
Sets 10:41:16 0° 84° (E) 3,055 7.9 -9.3°
